Weather History for KMNM - May, 2014

Change the Weather History Date:

Saturday, May 10, 2014

  Actual Average Record
Temperature  
Mean Temperature 58 °F -  
Max Temperature 71 °F 66 °F 86 °F (1985)
Min Temperature 46 °F 39 °F 22 °F (1966)
Degree Days  
Heating Degree Days 6    
Growing Degree Days 8 (Base 50)    
Moisture  
Dew Point 33 °F    
Average Humidity 42    
Maximum Humidity 71    
Minimum Humidity 19    
Precipitation  
Precipitation 0.00 in - - ()
Sea Level Pressure  
Sea Level Pressure 29.83 in    
Wind  
Wind Speed 10 mph (West)    
Max Wind Speed 14 mph    
Max Gust Speed 24 mph    
Visibility 10 miles    
Events      
Averages and records for this station are not official NWS values.
T = Trace of Precipitation, MM = Missing Value Source: NWS Daily Summary

Daily Weather History Graph

Daily Weather History Graph

Search for Another Location

Airport or City:

Trip Planner

Search our weather history database for the weather conditions in past years. The results will help you decide how hot, cold, wet, or windy it might be!

Date:

Astronomy

May. 10, 2014 Rise Set
Actual Time 5:27 AM CDT 8:07 PM CDT
Civil Twilight 4:53 AM CDT 8:41 PM CDT
Nautical Twilight 4:11 AM CDT 9:23 PM CDT
Astronomical Twilight 3:22 AM CDT 10:13 PM CDT
Moon 3:51 PM CDT (5/10) 3:12 AM CDT (5/10)
Length of Visible Light 15h 47m
Length of Day
14h 40m
Waxing Gibbous, 82% of the Moon is Illuminated
May 10
Waxing Gibbous
May 14
Full
May 21
Last Quarter
May 28
New
Jun 5
First Quarter

Hourly Weather History & Observations

Time (CDT) Temp. Windchill Dew Point Humidity Pressure Visibility Wind Dir Wind Speed Gust Speed Precip Events Conditions
12:15 AM 51.8 °F - 39.2 °F 62% 29.70 in 10.0 mi WNW 13.8 mph 24.2 mph N/A   Overcast
12:35 AM 51.8 °F - 39.2 °F 62% 29.70 in 10.0 mi West 10.4 mph 17.3 mph N/A   Overcast
12:55 AM 51.8 °F - 39.2 °F 62% 29.70 in 10.0 mi West 9.2 mph 16.1 mph N/A   Overcast
1:15 AM 51.8 °F - 37.4 °F 58% 29.71 in 10.0 mi West 12.7 mph 19.6 mph N/A   Overcast
1:35 AM 50.0 °F - 37.4 °F 62% 29.71 in 10.0 mi West 9.2 mph 16.1 mph N/A   Partly Cloudy
1:55 AM 50.0 °F - 37.4 °F 62% 29.73 in 10.0 mi West 8.1 mph - N/A   Clear
2:15 AM 48.2 °F - 37.4 °F 66% 29.73 in 10.0 mi West 9.2 mph 17.3 mph N/A   Clear
2:35 AM 48.2 °F - 37.4 °F 66% 29.74 in 10.0 mi West 9.2 mph 16.1 mph N/A   Clear
2:55 AM 48.2 °F - 37.4 °F 66% 29.74 in 10.0 mi West 9.2 mph - N/A   Clear
3:15 AM 48.2 °F - 35.6 °F 62% 29.76 in 10.0 mi West 8.1 mph 16.1 mph N/A   Clear
3:35 AM 48.2 °F - 35.6 °F 62% 29.76 in 10.0 mi West 5.8 mph - N/A   Partly Cloudy
3:55 AM 48.2 °F - 35.6 °F 62% 29.77 in 10.0 mi West 5.8 mph - N/A   Clear
4:15 AM 46.4 °F 41.5 °F 35.6 °F 66% 29.77 in 10.0 mi West 10.4 mph - N/A   Clear
4:35 AM 46.4 °F 43.5 °F 37.4 °F 71% 29.78 in 10.0 mi West 5.8 mph - N/A   Clear
4:55 AM 46.4 °F 43.5 °F 37.4 °F 71% 29.79 in 10.0 mi WSW 5.8 mph - N/A   Clear
5:15 AM 46.4 °F 43.5 °F 37.4 °F 71% 29.79 in 10.0 mi West 5.8 mph - N/A   Clear
5:35 AM 46.4 °F 42.4 °F 37.4 °F 71% 29.80 in 10.0 mi WSW 8.1 mph - N/A   Clear
5:55 AM 46.4 °F 42.4 °F 37.4 °F 71% 29.80 in 10.0 mi WSW 8.1 mph - N/A   Clear
6:15 AM 46.4 °F 41.9 °F 37.4 °F 71% 29.81 in 10.0 mi West 9.2 mph 17.3 mph N/A   Clear
6:35 AM 46.4 °F 42.4 °F 37.4 °F 71% 29.82 in 10.0 mi West 8.1 mph 17.3 mph N/A   Clear
6:55 AM 48.2 °F - 37.4 °F 66% 29.82 in 10.0 mi West 10.4 mph 18.4 mph N/A   Clear
7:15 AM 48.2 °F - 37.4 °F 66% 29.83 in 10.0 mi West 9.2 mph - N/A   Clear
7:35 AM 50.0 °F - 37.4 °F 62% 29.83 in 10.0 mi West 11.5 mph 20.7 mph N/A   Clear
7:55 AM 51.8 °F - 37.4 °F 58% 29.83 in 10.0 mi West 9.2 mph 16.1 mph N/A   Clear
8:15 AM 51.8 °F - 37.4 °F 58% 29.84 in 10.0 mi WNW 11.5 mph - N/A   Clear
8:35 AM 53.6 °F - 37.4 °F 54% 29.84 in 10.0 mi WNW 10.4 mph 16.1 mph N/A   Clear
8:55 AM 55.4 °F - 35.6 °F 47% 29.83 in 10.0 mi WNW 8.1 mph - N/A   Clear
9:15 AM 55.4 °F - 33.8 °F 44% 29.83 in 10.0 mi NW 10.4 mph 18.4 mph N/A   Clear
9:35 AM 57.2 °F - 33.8 °F 41% 29.83 in 10.0 mi WNW 10.4 mph 16.1 mph N/A   Clear
9:55 AM 57.2 °F - 33.8 °F 41% 29.83 in 10.0 mi NW 8.1 mph 18.4 mph N/A   Clear
10:15 AM 59.0 °F - 32.0 °F 36% 29.83 in 10.0 mi NW 11.5 mph 21.9 mph N/A   Clear
10:35 AM 60.8 °F - 30.2 °F 31% 29.83 in 10.0 mi WNW 10.4 mph 21.9 mph N/A   Clear
10:55 AM 60.8 °F - 30.2 °F 31% 29.83 in 10.0 mi West 10.4 mph 18.4 mph N/A   Clear
11:15 AM 62.6 °F - 28.4 °F 27% 29.83 in 10.0 mi WNW 8.1 mph - N/A   Clear
11:35 AM 62.6 °F - 26.6 °F 26% 29.84 in 10.0 mi NW 11.5 mph 18.4 mph N/A   Clear
11:55 AM 64.4 °F - 26.6 °F 24% 29.84 in 10.0 mi NW 11.5 mph 18.4 mph N/A   Clear
12:15 PM 64.4 °F - 26.6 °F 24% 29.84 in 10.0 mi NW 12.7 mph 19.6 mph N/A   Clear
12:35 PM 66.2 °F - 26.6 °F 23% 29.84 in 10.0 mi NNW 12.7 mph 18.4 mph N/A   Clear
12:55 PM 66.2 °F - 24.8 °F 21% 29.85 in 10.0 mi NW 11.5 mph 16.1 mph N/A   Clear
1:15 PM 66.2 °F - 24.8 °F 21% 29.85 in 10.0 mi NNW 9.2 mph 17.3 mph N/A   Clear
1:35 PM 68.0 °F - 26.6 °F 21% 29.85 in 10.0 mi West 11.5 mph 23.0 mph N/A   Clear
1:55 PM 68.0 °F - 26.6 °F 21% 29.84 in 10.0 mi NW 11.5 mph 18.4 mph N/A   Clear
2:15 PM 68.0 °F - 26.6 °F 21% 29.85 in 10.0 mi NNW 4.6 mph - N/A   Clear
2:35 PM 69.8 °F - 26.6 °F 20% 29.85 in 10.0 mi NNW 8.1 mph - N/A   Clear
2:55 PM 69.8 °F - 26.6 °F 20% 29.85 in 10.0 mi NW 5.8 mph - N/A   Clear
3:15 PM 69.8 °F - 28.4 °F 21% 29.84 in 10.0 mi WNW 10.4 mph - N/A   Clear
3:35 PM 69.8 °F - 28.4 °F 21% 29.85 in 10.0 mi NNW 6.9 mph - N/A   Clear
3:55 PM 71.6 °F - 28.4 °F 20% 29.85 in 10.0 mi West 10.4 mph - N/A   Clear
4:15 PM 69.8 °F - 26.6 °F 20% 29.85 in 10.0 mi WNW 3.5 mph - N/A   Clear
4:35 PM 71.6 °F - 28.4 °F 20% 29.85 in 10.0 mi NW 3.5 mph - N/A   Clear
4:55 PM 71.6 °F - 26.6 °F 19% 29.85 in 10.0 mi NW 4.6 mph - N/A   Clear
5:15 PM 71.6 °F - 26.6 °F 19% 29.85 in 10.0 mi NW 3.5 mph - N/A   Clear
5:35 PM 71.6 °F - 28.4 °F 20% 29.85 in 10.0 mi SSW 10.4 mph 18.4 mph N/A   Clear
5:55 PM 69.8 °F - 30.2 °F 23% 29.85 in 10.0 mi SSW 9.2 mph - N/A   Clear
6:15 PM 69.8 °F - 28.4 °F 21% 29.85 in 10.0 mi SSW 10.4 mph - N/A   Clear
6:35 PM 68.0 °F - 30.2 °F 24% 29.85 in 10.0 mi SSW 11.5 mph 17.3 mph N/A   Clear
6:55 PM 66.2 °F - 30.2 °F 26% 29.85 in 10.0 mi SW 11.5 mph - N/A   Clear
7:15 PM 66.2 °F - 30.2 °F 26% 29.85 in 10.0 mi SSW 12.7 mph - N/A   Clear
7:35 PM 64.4 °F - 30.2 °F 28% 29.86 in 10.0 mi SSW 8.1 mph - N/A   Clear
7:55 PM 62.6 °F - 30.2 °F 30% 29.86 in 10.0 mi SW 10.4 mph - N/A   Clear
8:15 PM 62.6 °F - 30.2 °F 30% 29.87 in 10.0 mi SW 9.2 mph - N/A   Clear
8:35 PM 60.8 °F - 30.2 °F 31% 29.87 in 10.0 mi SW 6.9 mph - N/A   Clear
8:55 PM 60.8 °F - 30.2 °F 31% 29.87 in 10.0 mi SW 8.1 mph - N/A   Clear
9:15 PM 59.0 °F - 32.0 °F 36% 29.88 in 10.0 mi SSW 8.1 mph - N/A   Clear
9:35 PM 57.2 °F - 32.0 °F 38% 29.88 in 10.0 mi SSW 4.6 mph - N/A   Clear
9:55 PM 57.2 °F - 33.8 °F 41% 29.90 in 10.0 mi SSW 6.9 mph - N/A   Clear
10:15 PM 57.2 °F - 33.8 °F 41% 29.91 in 10.0 mi SW 9.2 mph - N/A   Clear
10:35 PM 57.2 °F - 37.4 °F 48% 29.91 in 10.0 mi SSW 10.4 mph - N/A   Clear
10:55 PM 57.2 °F - 37.4 °F 48% 29.91 in 10.0 mi SW 9.2 mph - N/A   Clear
11:15 PM 57.2 °F - 37.4 °F 48% 29.91 in 10.0 mi SW 9.2 mph - N/A   Partly Cloudy
11:35 PM 57.2 °F - 37.4 °F 48% 29.92 in 10.0 mi SW 9.2 mph - N/A   Partly Cloudy
11:55 PM 57.2 °F - 37.4 °F 48% 29.92 in 10.0 mi SW 10.4 mph - N/A   Mostly Cloudy